Regional Weather Roundup
Issued by NWS Charleston, SC

Current Version | Previous Version | Graphics & Text | Print | Product List | Glossary On
Versions: 1 2 3 4 5 6 7 8 9 10 11 12 13 14 15 16 17 18 19 20 21 22 23 24 25 26 27 28 29 30 31 32 33 34 35 36 37 38 39 40 41 42 43 44 45 46 47 48 49 50
362
ASUS42 KCHS 260728
RWRCHS

REGIONAL WEATHER ROUNDUP
NATIONAL WEATHER SERVICE CHARLESTON SC
300 AM EDT THU MAY 26 2016

NOTE: "FAIR" INDICATES FEW OR NO CLOUDS BELOW 12,000 FEET WITH NO
SIGNIFICANT WEATHER AND/OR OBSTRUCTIONS TO VISIBILITY.

NOT ALL STATIONS ARE QUALITY CONTROLLED. USE DATA WITH CAUTION...
ESPECIALLY DEWPOINT OBSERVATIONS.

SCZ027-030-031-034>040-042>050-260800-
...SOUTHEAST SOUTH CAROLINA...

CITY           SKY/WX    TMP DP  RH WIND       PRES   REMARKS
N CHARLESTON   CLEAR     70  67  90 S5        30.18F
WATERFRONT PRK   N/A     74  70  87 VRB3      30.16F
MOUNT PLEASANT FAIR      68  66  94 CALM      30.18S
JOHNS ISLAND   FAIR      72  68  88 CALM      30.18F
PINOPOLIS        N/A     73  68  83 S6        30.11F
MONCKS CORNER  FAIR      61  59  94 CALM      30.17F
SUMMERVILLE    FAIR      64  64 100 CALM      30.19S
BEAUFORT MCAS  CLEAR     72  68  87 S5        30.18F
BEAUFORT ARPT  FAIR      72  68  88 S6        30.17F
HILTON HEAD IS CLEAR     73  70  88 S5        30.18F
WALTERBORO     SUNNY     68  68 100 CALM      30.18F
ALLENDALE      FAIR      68  64  88 CALM      30.17S

...SOUTHERN MIDLANDS AND PEE DEE...

CITY           SKY/WX    TMP DP  RH WIND       PRES   REMARKS
GEORGETOWN     FAIR      64  64 100 SW5       30.19S
KINGSTREE      FAIR      64  61  88 CALM      30.18S
ORANGEBURG     CLEAR     65  62  90 SW3       30.18F
BARNWELL       FAIR      70  64  83 CALM      30.18S
AIKEN          FAIR      68  59  73 S6        30.20S
MANNING        FAIR      70  66  88 S3        30.18S
COLUMBIA       CLEAR     68  59  73 W5        30.16S
SUMTER         CLEAR     67  61  83 S2        30.15F
FLORENCE       NOT AVBL
MYRTLE BEACH   MOCLDY    73  64  73 SW5       30.20S
N MYRTLE BEACH MOCLDY    74  70  87 S7        30.18S

$$

GAZ063-065-086>088-099>101-113>116-118-119-134>141-150-260800-
...SOUTHEAST GEORGIA...

CITY           SKY/WX    TMP DP  RH WIND       PRES   REMARKS
SAVANNAH ARPT  PTCLDY    70  65  84 S3        30.18F
HUNTER AAF     CLEAR     73  70  91 SE5       30.16S
FORT STEWART   CLEAR     65  63  91 CALM      30.16F
STATESBORO     PTCLDY    69  66  90 S3        30.18S
SYLVANIA       MOSUNNY   70  65  84 CALM      30.19R
CLAXTON        FAIR      65  64  97 CALM      30.18S

...CSRA...CENTRAL AND FAR SOUTHEAST GEORGIA...

CITY           SKY/WX    TMP DP  RH WIND       PRES   REMARKS
THOMSON        CLEAR     71  63  75 S3        30.21R
AUGUSTA-BUSH   CLEAR     63  62  97 CALM      30.15F
AUGUSTA-DANIEL CLEAR     73  60  63 S6        30.17F
SWAINSBORO     FAIR      68  61  77 S3        30.18S
VIDALIA        PTCLDY    68  63  83 S5        30.17F
EASTMAN        FAIR      67  61  80 CALM      30.19S
HAZLEHURST     FAIR      70  62  76 S6        30.16F
ALMA           CLEAR     66  62  87 CALM      30.18S
WAYCROSS       CLEAR     66  63  90 CALM      30.18F
JESUP          FAIR      61  59  94 CALM      30.18F
BAXLEY         FAIR      68  64  88 CALM      30.18R
BRUNSWICK      CLEAR     70  68  94 CALM      30.18F
SAINT SIMONS   CLEAR     75  67  76 SE7       30.17F

$$

SCZ027-028-034-036>038-045-046-048>050-GAZ119-141-260800-
...LAKE AND SUPPLEMENTAL COASTAL OBSERVATIONS...

STATION/POSITION TIME  TEMP    WIND        PRES    WAVE   SWELL
                       AIR SEA DIR/SP/G            HT/PER HT/PER/DIR
                 (UTC) (F)     (DEG/KT/KT) (MB)    (FT/S) (FT/S/D)
WINYAH BAY       0645   72     250/  3     1021.0F
LAKE MURRAY      0600   75     230/  8/ 13 1021.0S
ACE BASIN NERRS  0600   74        CALM     1022.0F
FORT PULASKI     0700   74 76  160/  3/  5 1022.2F
SAPELO ISLAND    0700   74     140/  5     1022.0S

$$

ANZ835-935-AMZ111-154-330-350-352-354-370-450-454-472-260800-
...C-MAN AND BUOY OBSERVATIONS...

STATION/POSITION TIME  TEMP    WIND        PRES    WAVE   SWELL
                       AIR SEA DIR/SP/G            HT/PER HT/PER/DIR
                 (UTC) (F)     (DEG/KT/KT) (MB)    (FT/S) (FT/S/D)
BUOY 41004       0650   77 76  170/  8/ 10 1021.8F   2/ 9   2/ 9
BUOY 41008       0650   77 76  150/  8/ 10 1022.0F   2/ 9   2/100/ 9
FOLLY BEACH CMAN 0700   75     210/ 11/ 12 1022.2F
CAPERS NEARSHORE 0708   75 75  230/ 10/ 16 1022.1R
FRIPP NEARSHORE  0608   76 76  200/ 10/ 14 1021.4F


STATION/POSITION TIME  TEMP    WIND        PRES    WAVE   SWELL
                       AIR SEA DIR/SP/G            HT/PER HT/PER/DIR
                 (UTC) (F)     (DEG/KT/KT) (MB)    (FT/S) (FT/S/D)
5E ST. MARYS GA  0621      78                N/A     2/10
FRYING PAN BUOY  0700   76 76  190/ 10/ 12 1022.1F
BUOY 41025       0650   71 69  240/  6/  6 1022.9S   2/ 7   2/130/ 7
CAPE LOOKOUT NC  0700   71     180/  5/  6 1022.3F
BUOY 41002       0650   75 78   80/ 10/ 12 1023.2R   2/ 8   2/ 80/ 8
BUOY 41010       0620   76 78   50/ 10/ 14 1021.5F
ST AUGUSTINE FL  0700   77 80  100/  9/ 10 1022.5F


$$




USA.gov is the U.S. government's official web portal to all federal, state and local government web resources and services.